カタログに戻る

STRIX-7

運用中科学VLEO
NORAD 69177·PAYLOAD·🇯🇵 Japan

打ち上げ May 22, 2026 から Rocket Lab Launch Complex 1

Loading…

次のパス (今後24時間)

TLE

最新Source: Space-Track

元期: Sep 14, 2026, 13:52 UTC

1 69177U 26112A   26257.57825797  .00002652  00000-0  21583-3 0  9991
2 69177  44.9067  82.7543 0024837 191.0289 169.0041 15.01958027 17316

AllMySatでSTRIX-7をリアルタイム追跡

Download on the App Store